Date String (YYYY-MM-DD hh:mm:ss) UTC,Instrument flags,absolute air pressure of the measurement (hPa),sample flow rate (lpm),inlet stack bypass flow (lpm),air temperature of the measurement (°C),ambient temperature measured by the external sensor (°C),aerosol sample conditioner tube jacket temperature (°C),OPC LED temperature (°C),internal box temperature (°C),relative humidity of the measurement (%),span deviation,mass concentration of particles derived from Lorenz-Mie calculation of OPC scattering (μg/m³),mass concentration of particles derived from Lorenz-Mie calculation of OPC scattering (μg/m³),mass concentration of particles derived from Lorenz-Mie calculation of OPC scattering (μg/m³)
DateTimeUTC,F1_M11,P_M11,Q1_M11,Q2_M11,T1_M11,T2_M11,T3_M11,T4_M11,T5_M11,U1_M11,ZSPAN_M11,X0_M11,X2_M11,X1_M11
2023-06-05 22:00:00,SystemResetWarning,0833.4,5.00,000.00,029.4,027.1,000.0,037.7,031.0,29.7,0000.0,0008.51,0005.21,0004.85
2023-06-05 22:01:00,SystemResetWarning,0833.4,4.99,000.00,029.4,027.3,000.0,037.7,031.0,29.9,0000.0,0008.53,0005.21,0004.83
2023-06-05 22:02:00,SystemResetWarning,0833.3,4.99,000.00,029.4,027.6,000.0,037.7,031.1,30.2,0000.0,0008.46,0005.17,0004.82
2023-06-05 22:03:00,SystemResetWarning,0833.3,5.00,000.00,029.4,027.7,000.0,037.7,031.1,29.9,0000.9,0008.45,0005.15,0004.80
2023-06-05 22:04:00,SystemResetWarning,0833.3,5.01,000.00,029.5,027.9,000.0,037.7,031.2,29.7,0000.8,0008.47,0005.16,0004.79
2023-06-05 22:05:00,SystemResetWarning,0833.3,5.00,000.00,029.5,028.0,000.0,037.8,031.2,29.8,0000.9,0008.34,0005.12,0004.75
2023-06-05 22:06:00,SystemResetWarning,0833.3,5.01,000.00,029.5,028.1,000.0,037.8,031.2,29.4,0001.1,0008.37,0005.07,0004.71
2023-06-05 22:07:00,SystemResetWarning,0833.3,5.01,000.00,029.5,028.2,000.0,037.8,031.3,28.7,0000.7,0008.32,0005.02,0004.68
2023-06-05 22:08:00,SystemResetWarning,0833.3,4.99,000.00,029.6,028.1,000.0,037.8,031.3,29.1,0000.8,0008.20,0004.95,0004.65
2023-06-05 22:09:00,SystemResetWarning,0833.2,4.98,000.00,029.5,026.6,000.0,037.7,031.0,29.1,0001.0,0008.12,0004.87,0004.60
2023-06-05 22:10:00,SystemResetWarning,0833.3,5.00,000.00,029.5,025.9,000.0,037.7,030.9,29.7,0000.4,0008.30,0004.82,0004.56
2023-06-05 22:11:00,SystemResetWarning,0833.3,5.01,000.00,029.4,025.9,000.0,037.7,030.8,29.2,0000.4,0007.70,0004.78,0004.52
2023-06-05 22:12:00,SystemResetWarning,0833.2,5.00,000.00,029.3,026.2,000.0,037.7,030.9,29.6,0000.9,0007.52,0004.70,0004.47
2023-06-05 22:13:00,SystemResetWarning,0833.3,5.01,000.00,029.4,026.6,000.0,037.7,030.9,29.4,0000.4,0007.87,0004.67,0004.43
2023-06-05 22:14:00,SystemResetWarning,0833.3,4.99,000.00,029.4,026.9,000.0,037.8,030.9,29.7,0000.2,0008.19,0004.66,0004.40
2023-06-05 22:15:00,SystemResetWarning,0833.2,4.99,000.00,029.3,026.9,000.0,037.8,030.5,30.5,0000.5,0008.20,0004.63,0004.37
2023-06-05 22:16:00,SystemResetWarning,0833.2,4.99,000.00,029.1,026.8,000.0,037.8,030.3,31.5,0000.4,0008.22,0004.63,0004.35
2023-06-05 22:17:00,SystemResetWarning,0833.2,4.99,000.00,029.0,026.7,000.0,037.7,030.1,30.6,0000.3,0008.20,0004.60,0004.32
2023-06-05 22:18:00,SystemResetWarning,0833.2,5.00,000.00,028.9,026.6,000.0,037.7,029.9,30.2,0000.2,0008.22,0004.63,0004.31
2023-06-05 22:19:00,SystemResetWarning,0833.2,5.01,000.00,028.8,026.5,000.0,037.6,029.9,31.5,0000.0,0008.75,0004.63,0004.30
2023-06-05 22:20:00,SystemResetWarning,0833.2,5.01,000.00,028.7,026.4,000.0,037.6,029.8,30.9,0000.0,0009.16,0004.68,0004.30
2023-06-05 22:21:00,SystemResetWarning,0833.2,5.01,000.00,028.7,026.4,000.0,037.6,029.9,31.5,0000.0,0008.90,0004.69,0004.30
2023-06-05 22:22:00,SystemResetWarning,0833.2,5.00,000.00,028.7,026.4,000.0,037.5,029.7,31.0,0000.0,0008.85,0004.71,0004.30
2023-06-05 22:23:00,SystemResetWarning,0833.2,4.99,000.00,028.6,026.3,000.0,037.5,029.5,31.1,0000.0,0008.96,0004.74,0004.31
2023-06-05 22:24:00,SystemResetWarning,0833.2,4.99,000.00,028.5,026.3,000.0,037.4,029.5,30.5,0000.0,0008.75,0004.76,0004.32
2023-06-05 22:25:00,SystemResetWarning,0833.2,5.00,000.00,028.5,026.2,000.0,037.4,029.5,31.0,0000.0,0008.31,0004.73,0004.32
2023-06-05 22:26:00,SystemResetWarning,0833.2,5.01,000.00,028.5,026.2,000.0,037.4,029.7,31.8,0000.0,0008.18,0004.70,0004.31
2023-06-05 22:27:00,SystemResetWarning,0833.2,5.00,000.00,028.4,026.2,000.0,037.3,029.8,32.3,0000.0,0008.14,0004.68,0004.31
2023-06-05 22:28:00,SystemResetWarning,0833.2,5.00,000.00,028.4,026.2,000.0,037.3,029.8,32.6,0000.0,0008.10,0004.69,0004.33
2023-06-05 22:29:00,SystemResetWarning,0833.2,5.00,000.00,028.4,026.2,000.0,037.3,029.7,30.3,0000.0,0008.60,0004.71,0004.36
2023-06-05 22:30:00,SystemResetWarning,0833.2,4.99,000.00,028.4,026.2,000.0,037.2,029.6,29.9,0000.0,0008.38,0004.73,0004.37
2023-06-05 22:31:00,SystemResetWarning,0833.2,5.00,000.00,028.3,026.1,000.0,037.2,029.6,31.3,0000.0,0007.89,0004.71,0004.37
2023-06-05 22:32:00,SystemResetWarning,0833.2,4.99,000.00,028.3,026.1,000.0,037.2,029.5,30.9,0000.0,0007.91,0004.74,0004.39
2023-06-05 22:33:00,SystemResetWarning,0833.2,5.00,000.00,028.2,026.1,000.0,037.2,029.5,31.1,0000.0,0008.16,0004.75,0004.42
2023-06-05 22:34:00,SystemResetWarning,0833.2,5.00,000.00,028.2,026.0,000.0,037.1,029.5,30.9,0000.0,0008.52,0004.75,0004.44
2023-06-05 22:35:00,SystemResetWarning,0833.2,5.01,000.00,028.2,026.0,000.0,037.1,029.5,31.1,0000.0,0008.57,0004.77,0004.46
2023-06-05 22:36:00,SystemResetWarning,0833.2,5.00,000.00,028.1,025.9,000.0,037.0,029.3,31.8,0000.0,0008.73,0004.82,0004.49
2023-06-05 22:37:00,SystemResetWarning,0833.2,5.00,000.00,028.1,025.9,000.0,037.0,029.4,31.8,0000.0,0008.86,0004.88,0004.52
2023-06-05 22:38:00,SystemResetWarning,0833.2,5.00,000.00,028.1,025.8,000.0,037.0,029.4,31.9,0003.2,0008.97,0004.93,0004.53
2023-06-05 22:39:00,SystemResetWarning,0833.2,5.00,000.00,028.0,025.8,000.0,037.0,029.3,31.7,0004.2,0009.03,0004.96,0004.55
2023-06-05 22:40:00,SystemResetWarning,0833.2,5.00,000.00,028.0,025.8,000.0,036.9,029.2,32.2,0003.9,0008.57,0004.93,0004.54
2023-06-05 22:41:00,SystemResetWarning,0833.2,5.00,000.00,027.9,025.7,000.0,036.9,029.2,32.9,0003.6,0008.38,0004.91,0004.54
2023-06-05 22:42:00,SystemResetWarning,0833.2,5.00,000.00,027.9,025.7,000.0,036.9,029.3,33.5,0003.3,0008.46,0004.91,0004.55
2023-06-05 22:43:00,SystemResetWarning,0833.2,5.01,000.00,027.9,025.8,000.0,036.8,029.2,33.1,0003.9,0008.38,0004.86,0004.53
2023-06-05 22:44:00,SystemResetWarning,0833.2,5.01,000.00,027.9,025.8,000.0,036.8,029.2,33.1,0003.8,0008.20,0004.80,0004.49
2023-06-05 22:45:00,SystemResetWarning,0833.2,5.00,000.00,027.9,025.8,000.0,036.8,029.2,32.6,0002.1,0007.69,0004.80,0004.46
2023-06-05 22:46:00,SystemResetWarning,0833.2,5.00,000.00,027.9,025.7,000.0,036.8,029.2,32.8,0000.0,0007.55,0004.73,0004.41
2023-06-05 22:47:00,SystemResetWarning,0833.2,5.00,000.00,027.8,025.7,000.0,036.7,029.1,33.4,0000.0,0007.35,0004.66,0004.37
2023-06-05 22:48:00,SystemResetWarning,0833.3,5.00,000.00,027.8,025.7,000.0,036.7,029.1,33.4,0001.8,0007.25,0004.61,0004.33
2023-06-05 22:49:00,SystemResetWarning,0833.3,5.00,000.00,027.8,025.7,000.0,036.7,029.1,33.1,0000.3,0006.99,0004.55,0004.30
2023-06-05 22:50:00,SystemResetWarning,0833.3,5.00,000.00,027.7,025.7,000.0,036.7,029.0,34.0,0000.0,0006.78,0004.49,0004.26
2023-06-05 22:51:00,SystemResetWarning,0833.2,4.99,000.00,027.7,025.7,000.0,036.6,029.0,33.5,0000.0,0006.84,0004.47,0004.24
2023-06-05 22:52:00,SystemResetWarning,0833.3,5.00,000.00,027.7,025.7,000.0,036.6,029.0,32.3,0000.0,0007.33,0004.46,0004.21
2023-06-05 22:53:00,SystemResetWarning,0833.3,5.00,000.00,027.7,025.7,000.0,036.6,029.0,32.8,0000.0,0007.29,0004.46,0004.20
2023-06-05 22:54:00,SystemResetWarning,0833.3,4.99,000.00,027.7,025.7,000.0,036.6,029.0,33.0,0000.0,0008.96,0004.53,0004.21
2023-06-05 22:55:00,SystemResetWarning,0833.3,5.01,000.00,027.6,025.7,000.0,036.6,029.0,32.7,0000.0,0010.89,0004.58,0004.23
2023-06-05 22:56:00,SystemResetWarning,0833.2,5.01,000.00,027.6,025.7,000.0,036.5,028.9,32.2,0000.0,0010.84,0004.56,0004.23
2023-06-05 22:57:00,SystemResetWarning,0833.3,5.00,000.00,027.6,025.6,000.0,036.5,028.9,32.9,0000.0,0010.88,0004.58,0004.24
2023-06-05 22:58:00,SystemResetWarning,0833.3,5.00,000.00,027.6,025.6,000.0,036.5,028.8,32.6,0000.0,0010.95,0004.59,0004.24
2023-06-05 22:59:00,SystemResetWarning,0833.3,4.99,000.00,027.5,025.6,000.0,036.5,028.8,32.2,0000.0,0010.95,0004.59,0004.25
